EDT,Max TemperatureF,Mean TemperatureF,Min TemperatureF,Max Dew PointF,MeanDew PointF,Min DewpointF,Max Humidity, Mean Humidity, Min Humidity, Max Sea Level PressureIn, Mean Sea Level PressureIn, Min Sea Level PressureIn, Max VisibilityMiles, Mean VisibilityMiles, Min VisibilityMiles, Max Wind SpeedMPH, Mean Wind SpeedMPH, Max Gust SpeedMPH,PrecipitationIn, CloudCover, Events, WindDirDegrees
2013-8-1,85,78,71,76,73,68,97,82,65,30.06,30.01,29.96,8,7,6,16,7,,0.87,5,Rain-Thunderstorm,125
2013-8-2,89,80,70,77,74,70,94,76,58,30.12,30.04,29.98,9,6,4,15,8,26,0.24,6,Rain,171
2013-8-3,91,86,80,79,77,75,89,77,62,30.16,30.11,30.06,9,7,6,12,5,,0.00,5,Rain,152
2013-8-4,91,86,81,79,76,75,84,75,59,30.15,30.09,30.03,9,7,6,7,4,,0.00,6,Rain,136
2013-8-5,91,84,78,78,75,72,84,75,54,30.06,30.02,29.97,9,7,6,7,2,,0.00,6,Rain,258
2013-8-6,89,83,77,79,76,73,96,82,61,30.02,29.98,29.95,9,7,2,12,3,,0.94,5,Rain-Thunderstorm,189
2013-8-7,90,84,77,77,75,70,94,74,56,30.01,29.98,29.95,9,7,6,15,5,,0.00,3,Rain,121
2013-8-8,90,85,80,77,74,72,84,72,55,30.03,29.99,29.94,9,7,6,12,6,,0.12,3,Thunderstorm,103
2013-8-9,86,80,75,77,75,72,94,82,66,30.09,30.04,29.98,9,6,1,104,11,,0.47,5,Rain-Thunderstorm,81
2013-8-10,91,86,80,77,75,73,84,73,53,30.12,30.08,30.04,9,7,6,12,7,,0.00,4,,92
2013-8-11,89,84,78,79,76,75,94,76,64,30.14,30.10,30.05,9,7,6,46,10,,0.08,3,Rain,79
2013-8-12,86,82,77,81,76,73,94,80,70,30.09,30.06,30.03,9,7,6,13,5,,0.04,4,Rain-Thunderstorm,61
2013-8-13,90,83,76,77,75,72,89,73,58,30.06,30.02,29.98,9,7,6,10,5,,0.00,2,,122
2013-8-14,92,84,77,77,74,72,89,72,58,30.06,30.01,29.98,9,7,6,12,5,,0.00,4,,132
2013-8-15,87,80,72,79,75,70,100,83,66,30.09,30.03,29.98,8,6,0,10,5,,1.65,7,Rain-Thunderstorm,112
2013-8-16,90,86,82,80,77,75,89,78,61,30.09,30.04,29.99,9,7,6,12,4,,0.00,6,,115
2013-8-17,92,86,79,79,76,73,84,75,60,30.08,30.05,30.02,9,7,6,12,5,,0.04,3,Rain,101
2013-8-18,92,86,80,79,76,75,84,74,59,30.09,30.05,30.01,9,7,6,13,6,,0.00,2,,107
2013-8-19,91,84,77,79,76,72,92,75,58,30.09,30.03,29.98,9,7,6,12,5,,0.01,3,Rain,102
2013-8-20,88,82,77,79,76,73,89,79,67,30.06,30.02,29.99,9,7,4,14,5,,0.35,5,Rain-Thunderstorm,85
2013-8-21,89,84,80,79,77,75,94,80,66,30.09,30.04,30.00,9,7,6,12,7,,0.00,6,,107
2013-8-22,88,84,80,81,76,73,89,75,62,30.07,30.03,29.98,9,7,6,10,6,,0.00,6,,96
2013-8-23,91,84,78,79,76,72,89,74,58,30.04,29.99,29.95,9,7,6,12,5,,0.00,4,,111
2013-8-24,92,85,78,77,75,73,84,70,46,30.11,30.05,30.00,9,7,6,8,3,,0.00,4,,117
2013-8-25,89,84,78,79,75,73,89,77,59,30.12,30.08,30.04,9,7,6,8,3,,0.12,5,Rain-Thunderstorm,102
2013-8-26,87,80,73,79,74,68,94,85,69,30.12,30.07,30.01,9,6,4,9,3,,0.59,7,Rain-Thunderstorm,97
2013-8-27,87,78,70,77,74,72,95,81,68,30.05,30.01,29.98,9,7,6,16,3,,0.04,5,Rain-Thunderstorm,90
2013-8-28,91,83,75,79,75,70,100,81,55,30.06,30.00,29.97,9,7,6,12,3,,0.00,4,,99
2013-8-29,89,83,77,81,78,75,94,84,70,30.04,30.00,29.95,9,7,6,6,2,,0.04,5,Rain-Thunderstorm,114
2013-8-30,90,82,75,79,75,36,100,83,22,30.02,29.98,29.94,9,7,6,10,1,,0.28,6,Rain-Thunderstorm,106
2013-8-31,90,82,73,79,76,72,94,75,57,30.03,29.99,29.94,9,6,0,10,5,,0.59,5,Rain-Thunderstorm,126